Theta_e
283 283 283 283 283 282 283 283 283 284 283 284 284 283 282 282 282 282 282 283 282 282 282 282 282 282 282 283 283 283 283 284 284 284 284 285 285 285 285 285 285 285 285 285 285 285 285 285 285 285 285 285 285 285 284 284 284 284 284 284 285 285 285 286 285 286 284 283 284 284 284 284 283 285 284 284 284 286 288 286 286 285 285 287 289
283 283 283 283 281 281 281 281 281 280 280 280 280 280 280 281 281 282 281 282 282 282 282 282 282 281 281 282 282 282 283 283 283 283 283 284 284 285 285 285 285 285 285 284 285 285 285 285 285 285 285 284 285 285 285 285 284 283 283 283 284 285 284 285 286 286 285 281 281 280 281 284 283 284 284 284 283 284 285 285 285 285 284 285 286
283 282 282 280 280 279 279 279 279 279 279 279 279 279 279 279 280 280 280 280 281 282 282 282 282 282 281 281 281 282 282 282 283 283 283 282 282 283 284 283 284 284 284 284 284 284 284 284 285 285 285 285 285 285 285 284 284 284 284 284 283 284 283 284 285 285 286 284 281 281 281 282 283 283 284 285 284 284 284 284 284 284 285 284 284
280 280 279 279 279 278 278 278 278 278 278 278 278 278 278 278 279 279 279 279 279 280 280 280 281 281 281 281 281 281 282 282 282 282 282 282 282 283 283 283 283 283 283 283 284 284 284 284 284 284 284 284 284 285 285 284 284 284 284 285 284 284 284 282 283 285 285 285 280 281 281 281 282 283 283 284 283 283 284 283 283 283 283 284 283
279 279 279 278 278 278 278 278 278 278 278 278 278 277 278 277 278 277 277 278 278 278 278 278 279 280 281 280 281 281 281 281 281 282 282 282 282 282 283 283 283 283 283 283 284 283 283 283 284 284 284 283 284 284 284 284 284 284 284 285 284 284 284 283 283 283 283 282 281 280 280 281 282 281 282 282 281 281 281 281 281 281 282 282 282
278 278 278 278 278 277 277 277 278 278 278 277 277 277 278 277 277 277 277 278 278 278 278 278 278 279 279 280 280 281 281 281 281 281 281 281 281 282 282 282 282 283 283 283 283 283 283 283 283 283 283 283 283 284 284 283 284 284 284 284 284 284 283 283 283 283 283 283 282 279 279 280 280 279 281 282 281 280 280 280 279 280 280 279 280
279 278 279 278 278 279 278 278 279 279 279 279 278 277 277 277 277 277 278 277 278 278 278 278 279 278 279 279 279 280 280 281 281 281 281 281 281 280 281 281 281 282 282 282 282 282 282 282 283 283 283 283 283 283 283 283 284 283 284 284 284 284 283 283 283 283 283 283 283 280 280 280 281 280 280 282 282 282 281 279 278 279 279 280 279
280 279 279 279 278 279 278 278 278 279 279 279 279 278 278 278 277 277 277 277 278 278 278 278 278 278 279 279 279 279 279 280 280 280 281 281 281 281 281 281 281 281 281 282 282 282 282 283 283 283 283 283 283 284 284 284 283 283 284 284 284 283 283 283 283 282 282 283 283 281 279 279 279 279 280 280 279 280 280 280 278 278 278 280 281
279 279 278 278 279 278 278 279 279 279 279 279 279 279 279 279 279 278 277 277 278 278 278 278 278 278 278 278 278 279 279 280 280 280 280 280 281 281 281 281 281 281 281 281 282 282 282 283 283 283 283 285 286 286 286 286 284 283 283 283 283 283 283 283 283 283 282 282 282 282 279 279 279 279 278 278 279 279 280 280 279 280 279 279 280
279 279 278 278 278 278 278 278 278 278 278 279 279 279 279 279 279 279 279 279 278 278 277 277 277 277 278 278 278 279 279 280 282 285 286 283 281 282 282 281 281 280 280 281 281 282 283 283 283 285 285 285 285 286 287 288 288 286 285 284 284 283 282 282 282 282 282 282 282 283 280 279 279 280 279 280 281 280 280 279 279 279 279 279 280
279 279 279 279 278 277 277 278 278 277 278 278 278 278 279 279 279 279 279 279 279 279 278 278 278 278 278 278 278 278 279 280 283 285 286 287 285 282 281 281 281 281 280 280 280 281 282 283 283 284 284 285 285 286 287 288 288 288 288 288 287 285 283 282 282 282 282 282 282 282 282 281 280 280 280 280 280 280 280 280 279 279 278 277 276
279 279 279 278 278 278 278 278 277 278 277 277 278 278 278 278 278 279 279 279 279 279 278 278 278 278 278 278 278 278 278 282 284 285 286 286 286 283 282 281 281 281 281 281 280 280 281 281 282 283 283 283 283 283 285 286 287 288 288 288 288 288 288 285 283 282 282 281 282 282 282 282 282 280 280 280 279 280 280 280 279 279 278 278 279
278 278 278 278 278 278 278 277 277 277 278 277 277 277 277 277 278 278 278 279 278 277 278 278 278 278 278 277 277 278 278 282 283 284 285 285 286 285 282 281 281 280 281 281 281 280 280 280 281 282 283 284 284 284 283 283 285 287 287 287 287 288 288 289 289 286 284 283 282 282 282 283 282 281 280 280 281 279 280 279 279 280 280 279 280
277 277 277 277 277 277 277 277 277 277 277 277 277 277 277 277 277 278 277 277 277 277 277 277 277 277 277 277 277 277 277 281 283 284 284 285 285 285 282 282 281 281 281 281 281 280 280 280 280 280 281 282 283 283 283 283 283 283 283 283 284 285 287 288 288 288 287 285 284 282 284 284 283 283 282 282 280 279 279 279 279 279 280 280 281
275 276 276 276 276 276 276 276 276 276 276 276 276 276 276 276 277 277 276 276 276 276 276 276 277 277 277 277 277 277 277 281 282 283 283 284 285 285 282 282 281 281 281 281 280 280 280 280 280 280 280 281 282 283 282 282 282 282 282 282 282 283 284 285 285 285 286 286 285 284 284 285 285 285 282 283 282 282 282 281 281 281 281 282 281
274 275 275 275 275 275 275 274 274 274 274 274 274 274 274 274 274 275 275 275 275 276 276 276 275 275 276 276 275 275 276 281 281 282 283 283 284 281 280 280 280 280 280 280 280 280 280 280 280 280 280 280 283 286 286 284 282 281 281 281 281 282 283 285 287 287 286 286 286 286 286 285 287 285 283 282 282 282 282 282 281 281 280 279 278
273 273 273 274 274 273 273 272 272 272 271 271 271 271 271 271 272 273 272 272 272 272 273 273 274 274 274 274 274 274 275 278 280 281 281 282 282 279 279 279 278 278 279 279 279 279 279 279 279 280 280 280 283 286 287 287 283 282 281 281 281 281 282 283 286 288 288 288 288 289 289 289 289 290 290 288 284 283 281 280 278 279 278 277 278
272 272 272 272 272 271 271 270 269 269 268 268 268 268 269 269 269 270 269 269 269 270 270 271 271 272 272 272 273 273 273 276 279 280 281 281 281 278 278 277 277 277 278 279 279 279 279 281 281 280 280 280 284 286 287 286 283 282 282 281 281 280 281 283 283 284 287 288 288 288 288 289 290 290 290 290 288 286 281 278 279 280 278 278 277
270 270 270 270 269 268 268 267 266 266 265 265 266 265 265 265 266 267 266 267 267 267 268 268 269 269 270 271 273 272 272 274 277 279 280 280 279 277 276 276 276 276 276 277 278 278 278 280 282 282 281 282 285 286 287 286 282 282 281 281 280 280 281 283 282 282 283 283 283 284 284 286 286 286 286 289 289 286 282 282 282 280 278 278 278
269 268 268 267 266 265 265 264 264 263 263 263 263 263 264 264 264 264 264 264 264 265 265 266 266 267 268 268 269 270 270 271 273 277 278 279 280 277 276 275 274 275 275 276 276 277 277 278 280 283 284 285 286 286 286 287 284 282 282 281 280 280 283 282 282 282 282 282 282 283 283 284 284 284 285 285 286 286 283 282 282 281 280 279 279
266 266 265 264 263 262 262 262 261 261 261 261 262 262 262 262 262 262 261 262 263 263 263 263 264 264 265 266 267 268 268 268 270 275 276 277 278 278 275 275 275 275 274 275 275 275 276 277 278 281 283 284 285 286 287 287 287 285 283 282 282 283 284 280 282 283 282 282 282 282 282 282 283 283 283 284 284 284 284 283 282 282 281 280 279
264 263 262 262 261 261 260 260 261 260 260 260 260 260 260 261 260 260 261 261 261 261 262 262 263 263 264 265 265 266 268 270 269 273 275 276 277 278 275 274 275 275 274 274 275 275 276 277 277 280 282 283 284 285 286 287 287 286 285 287 287 287 285 283 283 282 282 282 281 281 281 281 281 281 282 282 283 283 284 283 283 282 282 282 281
262 261 260 260 260 259 259 259 259 259 259 259 259 258 259 259 259 260 260 260 260 260 260 261 261 262 262 263 265 265 266 268 271 269 273 274 275 276 276 276 278 276 275 275 275 276 278 278 278 281 282 283 283 284 285 286 286 285 287 288 288 288 287 285 283 282 281 281 280 279 280 280 280 280 281 281 282 283 283 283 283 282 282 282 282
260 259 259 259 258 258 258 258 258 258 258 258 258 258 258 258 259 259 259 259 259 259 259 260 260 260 260 261 263 264 265 266 268 270 269 272 273 275 275 276 277 274 274 274 275 276 277 278 279 282 282 283 283 284 285 285 284 286 287 287 287 287 286 285 284 282 280 280 279 279 279 280 280 280 280 281 281 282 282 282 281 281 281 280 279
259 258 258 257 257 257 258 257 257 257 257 258 257 257 257 258 257 258 258 258 258 258 258 259 259 259 259 260 260 261 262 263 263 266 269 270 272 272 273 273 274 275 272 273 274 274 276 278 279 279 281 283 284 284 284 284 285 285 286 286 285 284 284 284 284 282 280 279 279 279 279 279 280 280 281 281 281 281 279 278 278 278 277 277 276
257 257 257 257 257 257 257 257 257 257 257 258 257 258 257 257 257 257 257 257 257 257 257 258 258 258 258 258 259 260 261 262 262 263 266 267 268 270 271 272 273 273 273 272 275 276 278 279 280 281 281 281 281 281 280 281 284 284 285 285 283 283 283 283 283 282 280 279 279 279 279 280 280 280 280 280 279 278 278 276 275 274 274 274 273
257 257 256 257 257 257 256 256 257 257 257 257 257 257 257 257 257 257 257 256 256 257 257 257 257 257 257 258 259 260 260 261 262 263 264 265 265 266 267 268 271 272 270 270 272 272 273 275 275 277 277 279 280 282 282 282 281 282 282 282 282 282 283 283 282 282 281 280 280 279 280 280 280 279 278 278 278 277 277 275 275 273 274 274 273
256 256 256 256 256 256 256 258 257 256 257 256 256 256 256 257 256 256 256 256 256 256 257 257 258 258 258 259 260 261 261 262 263 264 265 266 266 266 267 267 267 268 268 269 270 271 271 274 274 273 274 275 276 279 280 280 280 280 280 280 280 281 282 283 283 282 282 281 281 280 279 278 277 277 278 277 277 276 276 275 274 273 273 273 272
256 256 256 256 256 257 257 256 256 256 256 256 256 256 256 256 256 257 259 259 259 259 259 260 261 262 262 262 262 262 263 264 265 268 268 271 269 268 268 268 269 269 270 273 271 271 271 271 271 272 273 273 274 275 277 277 279 280 280 280 280 280 280 281 280 281 281 281 279 279 278 277 277 277 276 276 276 275 275 274 274 273 273 274 273
255 256 256 256 256 256 256 256 256 256 256 256 256 256 260 263 262 260 260 264 267 268 268 263 264 265 264 265 265 264 263 265 270 272 272 272 272 273 273 273 273 272 273 274 273 270 270 269 270 270 271 272 273 274 275 275 276 277 278 280 280 279 280 280 280 280 281 280 280 279 277 277 276 276 275 275 274 273 274 275 273 273 272 272 272
256 256 256 256 256 257 256 256 256 256 256 256 255 255 255 257 263 266 266 266 267 268 269 269 270 270 266 264 266 270 271 271 271 271 271 272 272 272 273 273 273 273 274 271 269 269 268 268 269 270 271 272 272 273 275 275 275 276 277 278 279 279 279 279 280 280 280 279 279 278 277 276 275 275 274 274 273 272 272 273 273 272 272 272 272
255 256 256 256 256 256 256 256 256 256 256 256 255 255 255 255 256 262 265 266 267 267 268 268 269 269 270 268 266 265 268 270 271 271 271 271 272 272 272 273 273 274 274 274 269 268 268 268 268 269 270 270 272 273 274 274 276 276 276 277 277 278 278 278 279 279 279 279 278 277 276 276 275 275 274 274 272 271 271 271 270 270 271 272 271
256 256 256 256 256 256 256 256 255 255 255 255 255 255 255 255 254 255 258 264 266 266 267 268 268 268 269 269 270 269 269 269 270 271 271 271 272 272 272 273 273 273 273 270 267 267 267 267 268 268 269 269 271 272 273 274 275 275 276 276 276 277 278 279 280 278 278 278 277 276 275 275 274 274 273 272 271 270 270 270 270 270 270 270 270
256 256 256 256 256 256 255 255 255 255 255 255 255 255 255 255 255 255 255 256 257 261 264 266 267 268 268 269 269 269 269 270 271 271 271 271 271 272 272 270 272 273 271 267 266 265 266 266 267 267 268 269 270 271 272 272 273 274 275 276 276 277 277 278 278 278 278 277 277 275 274 274 274 273 272 271 271 270 269 269 269 268 268 269 269
257 257 257 257 256 256 255 256 255 255 255 256 256 256 256 256 256 256 256 255 255 256 256 258 263 266 264 266 268 270 270 270 270 270 271 271 271 272 271 266 265 265 265 264 265 265 265 266 266 267 267 268 269 270 271 272 273 273 274 275 276 277 277 277 277 277 277 277 276 275 274 273 273 272 271 270 269 268 268 268 268 268 268 268 268
256 256 256 256 256 256 256 256 256 256 256 256 257 257 257 257 257 257 257 257 257 256 257 258 258 263 267 268 269 268 269 270 270 270 270 271 271 271 265 263 263 262 262 263 263 264 265 266 267 267 268 268 270 270 271 272 273 274 275 276 276 276 276 276 276 276 276 276 275 274 273 272 272 271 270 270 269 269 268 268 268 268 268 268 268
256 255 255 255 255 255 255 256 256 256 258 257 257 257 257 257 257 257 257 257 257 257 257 258 258 259 262 261 262 266 269 269 269 270 270 270 271 267 264 263 262 263 263 263 264 264 265 266 267 267 268 268 269 269 271 272 273 274 276 276 277 276 276 276 276 275 275 274 273 273 272 272 271 270 270 268 268 268 268 268 268 268 268 268 268
255 255 255 255 256 256 256 255 256 258 257 257 256 256 256 257 257 257 257 257 257 257 257 257 259 258 257 259 262 261 262 266 268 267 267 267 264 262 263 263 264 263 263 264 264 265 265 267 267 267 268 269 269 269 270 271 273 274 275 276 276 276 276 276 276 275 274 273 272 272 271 271 270 270 269 268 268 267 267 267 267 267 267 268 268
255 256 257 257 258 256 256 256 256 256 256 256 256 256 257 257 257 257 257 257 257 257 258 258 258 258 259 260 260 262 262 261 261 261 263 263 263 263 263 263 264 264 264 265 266 266 266 267 268 269 269 269 270 270 270 271 273 274 275 276 275 274 275 274 274 274 273 272 271 271 271 270 270 269 269 268 268 267 267 267 267 267 266 266 267
254 254 255 256 256 256 256 256 256 255 256 256 256 257 257 257 257 257 257 257 257 258 258 258 259 259 260 260 260 262 262 263 263 263 263 263 263 263 263 263 264 264 264 265 266 267 267 268 269 270 271 271 271 271 271 272 273 274 275 274 273 273 273 273 272 272 271 271 270 270 270 269 269 269 269 268 268 267 267 267 267 267 267 267 267
254 254 255 256 256 255 255 255 255 255 256 256 257 256 257 257 258 258 258 258 258 259 259 259 259 260 261 263 267 267 264 263 263 262 262 262 263 263 263 264 264 265 265 265 266 267 268 269 270 270 271 271 272 272 273 273 274 273 271 272 272 272 272 272 272 271 271 270 269 269 269 268 268 268 267 267 269 268 267 267 267 267 267 267 267
254 254 254 254 255 254 254 255 255 256 256 256 256 257 257 257 258 258 258 258 259 259 259 259 260 260 262 264 266 266 262 260 260 260 260 261 262 262 262 262 262 263 263 264 265 266 266 267 268 269 269 270 271 272 273 273 273 273 272 271 271 270 270 271 271 270 269 269 268 268 268 268 268 268 268 269 267 267 267 267 267 267 266 266 266
254 254 254 254 254 254 254 254 255 255 255 256 256 257 257 257 257 257 258 258 258 258 258 258 259 259 259 263 262 262 259 258 259 258 259 259 260 260 260 260 261 261 263 264 264 264 264 264 265 267 269 270 271 272 273 273 273 272 271 270 270 270 270 270 269 269 268 268 268 267 267 268 268 267 267 267 267 267 266 266 266 266 266 266 266
253 253 253 254 254 254 254 254 254 255 255 256 257 256 256 256 256 257 257 257 257 258 257 257 258 257 257 258 259 258 257 257 257 257 258 258 258 259 259 259 260 261 261 262 262 263 263 264 265 267 268 269 270 271 271 272 272 272 271 270 268 268 269 268 268 268 267 267 267 267 267 267 267 267 267 267 266 266 266 266 266 266 265 265 265
252 252 252 252 253 253 253 254 255 255 256 255 254 254 255 255 255 256 257 256 257 257 257 257 257 257 257 257 257 257 257 257 257 257 257 257 258 258 258 258 259 260 260 261 261 262 262 263 265 265 266 267 268 268 268 269 268 268 267 267 266 267 268 268 268 268 268 267 267 266 266 266 266 266 266 266 266 266 266 266 265 265 265 264 264
252 251 252 252 253 253 253 253 254 254 254 254 253 253 254 254 255 256 256 257 257 257 257 257 257 257 257 256 257 257 257 257 257 257 257 257 258 258 258 258 259 259 260 260 261 261 261 262 262 263 264 265 265 266 266 267 267 267 267 268 267 267 267 267 267 267 267 267 267 266 266 266 266 266 266 266 266 266 266 266 265 265 264 264 264
250 251 252 252 252 253 253 254 253 253 253 253 254 254 254 254 255 256 256 257 257 257 256 256 256 256 256 256 257 257 257 257 257 257 257 257 258 258 258 258 259 259 259 260 260 260 260 261 261 261 262 263 264 265 265 265 266 266 266 267 267 267 267 267 267 267 267 267 267 267 266 266 266 266 266 266 266 266 265 265 265 264 264 264 264
250 251 251 252 252 252 252 252 252 254 253 253 253 254 254 255 255 255 255 256 256 256 256 256 256 256 256 256 257 257 257 257 258 258 258 258 258 258 258 259 259 259 260 260 260 260 260 261 261 261 262 262 263 263 264 265 265 265 266 266 266 266 266 266 267 267 267 267 267 267 266 266 266 266 266 266 265 265 265 264 264 264 264 264 264
250 250 251 251 252 252 252 252 252 252 252 252 253 253 254 254 254 254 255 255 255 255 255 255 255 256 256 256 257 257 257 257 257 257 257 258 258 258 259 259 259 260 260 260 261 261 261 261 261 262 262 262 263 263 264 264 264 265 265 266 266 266 266 266 266 266 266 267 267 266 266 266 265 265 265 265 265 265 264 264 264 264 263 263 263
250 250 250 251 251 251 251 251 251 251 252 252 252 252 253 253 253 254 254 254 254 255 255 255 255 255 255 255 256 256 256 256 257 257 257 258 258 258 259 259 259 259 260 260 261 261 262 262 262 262 262 263 263 264 264 264 265 265 265 266 266 266 266 267 267 266 266 266 266 266 266 266 265 265 265 265 264 264 264 264 263 263 263 262 262
250 250 250 250 250 250 250 250 250 251 251 252 252 252 252 252 253 254 254 254 253 254 254 254 254 255 255 255 256 256 256 257 257 257 257 257 257 258 258 258 258 259 259 260 260 261 261 262 263 263 263 263 264 264 264 265 265 265 265 266 266 266 266 266 266 266 266 266 266 266 266 265 265 264 264 264 264 263 263 263 263 262 262 262 261
Wind_Speed
3 3 2 2 1 2 2 2 3 3 4 4 5 5 6 5 5 4 5 6 4 6 6 6 6 7 8 8 8 8 8 8 7 6 6 6 6 6 6 6 7 8 7 8 7 7 8 9 9 8 6 8 9 8 8 8 8 8 8 8 10 10 10 12 16 18 7 6 6 8 9 8 9 13 12 11 10 11 14 12 11 11 12 12 14
2 3 3 3 1 1 1 1 1 2 2 2 3 3 3 3 3 4 4 5 4 5 6 5 5 6 6 7 7 8 7 8 8 7 7 8 7 6 6 6 7 8 6 8 8 7 7 9 9 8 7 9 9 9 8 8 8 9 9 9 9 10 8 10 14 14 16 4 7 3 4 9 11 10 15 14 13 11 13 12 10 12 12 12 11
3 2 2 3 3 3 2 0 0 0 0 1 1 1 1 2 2 2 3 4 4 4 5 5 6 5 5 6 6 6 7 7 7 6 7 7 7 7 6 6 7 8 8 8 8 7 8 8 9 8 6 9 10 9 8 9 8 10 12 9 10 10 8 10 10 15 16 11 7 8 9 9 13 12 14 13 13 13 15 14 13 11 11 12 11
3 2 2 3 3 2 3 2 1 1 1 1 1 2 2 2 2 2 3 3 4 4 4 4 4 5 5 6 7 6 7 6 7 6 6 7 7 8 8 7 7 7 8 8 8 8 9 9 9 8 7 10 10 9 8 8 9 10 11 11 10 11 8 7 10 12 12 12 6 10 9 9 10 7 8 9 10 11 12 11 9 9 9 9 11
3 3 2 2 3 2 3 3 2 3 3 3 2 3 2 2 2 3 3 4 3 4 4 3 4 4 5 6 7 7 7 7 7 7 7 5 6 7 7 7 7 8 8 8 8 8 8 9 10 7 7 10 10 9 8 10 10 10 11 11 11 10 8 7 10 9 10 11 7 5 5 7 6 6 9 12 9 8 7 10 12 12 10 7 5
3 3 3 3 4 4 3 3 3 3 3 4 4 4 3 3 4 4 3 4 5 4 5 5 4 5 5 5 6 6 6 6 7 7 7 6 6 6 6 6 7 8 8 8 8 7 8 9 9 8 8 9 10 9 8 10 10 11 12 11 10 9 10 10 9 11 11 12 9 6 5 8 5 5 8 11 11 10 8 8 5 6 8 7 8
4 5 5 5 5 6 6 6 6 6 6 5 4 3 4 4 4 4 4 4 5 5 5 6 6 5 7 6 7 7 7 6 7 8 8 7 6 6 7 6 7 7 6 7 7 7 8 8 9 8 9 9 10 10 9 10 10 11 11 11 10 10 11 11 10 12 13 13 11 8 8 8 8 10 7 10 11 12 15 12 10 7 6 10 10
5 5 5 6 6 7 6 5 6 6 6 6 6 6 6 5 5 4 4 4 5 6 6 7 7 6 7 7 8 8 8 8 8 7 7 7 7 7 7 7 7 7 7 7 7 8 8 9 9 9 9 9 9 10 9 10 9 10 10 9 9 11 12 11 11 11 12 13 14 10 7 8 7 4 2 7 9 8 9 10 13 12 12 12 13
5 5 5 5 6 6 6 5 5 6 7 7 8 8 8 7 7 6 4 5 5 5 6 6 7 8 7 8 8 8 8 9 7 8 8 9 8 8 8 8 8 8 7 7 8 8 8 8 9 9 10 13 16 14 13 12 9 10 10 8 9 11 10 10 10 10 11 12 13 10 7 8 10 10 9 12 16 17 11 8 11 11 9 8 10
5 5 5 6 6 5 5 5 6 6 6 7 8 9 9 9 10 10 10 9 8 7 6 7 6 8 9 9 8 7 8 8 10 14 13 10 9 9 9 9 8 8 8 8 8 8 9 9 9 14 16 16 17 17 18 18 18 14 12 10 9 10 10 11 11 11 11 12 13 12 10 11 11 13 14 14 11 6 9 13 13 8 7 10 9
5 5 7 6 5 5 5 6 5 6 7 6 7 8 9 9 9 11 11 11 12 11 10 11 11 10 10 10 11 10 9 9 15 17 19 21 13 9 9 10 9 9 9 9 10 10 9 9 8 10 12 14 14 17 17 20 19 20 21 20 17 13 11 12 13 11 11 12 12 12 13 15 14 11 13 11 10 13 13 12 12 10 13 14 15
7 7 7 7 7 7 7 7 7 8 7 7 7 7 8 8 9 10 10 12 12 10 11 12 12 12 11 12 12 12 12 13 19 20 21 22 19 13 10 9 9 9 10 10 10 9 9 9 8 7 8 10 10 10 14 18 20 21 21 21 20 22 21 16 13 12 13 13 13 13 13 15 15 10 10 10 11 11 9 10 13 15 14 14 14
5 6 6 6 7 7 7 7 8 8 8 7 7 7 8 9 10 10 11 11 9 11 12 12 13 13 12 13 14 14 13 16 21 21 22 23 23 19 11 11 11 11 11 11 11 11 9 9 9 8 8 14 12 11 11 11 15 19 19 21 21 22 22 24 24 18 12 13 15 16 15 14 14 10 11 12 9 12 12 12 13 13 13 14 15
6 7 7 7 6 7 7 7 8 8 7 7 7 8 9 10 10 10 9 9 10 10 11 13 13 13 13 13 13 14 16 17 24 24 24 24 24 20 12 13 13 12 13 12 11 11 11 10 10 10 9 9 9 10 10 11 11 10 11 11 12 16 19 23 25 27 22 16 15 17 16 13 13 10 8 11 14 14 13 14 12 13 14 17 13
8 7 8 8 8 7 8 8 9 9 9 9 10 10 11 11 11 10 8 8 10 10 11 12 12 13 14 13 13 15 15 23 26 28 27 27 27 22 13 13 12 12 13 12 12 12 12 12 11 12 11 10 10 11 11 11 10 10 11 11 12 12 13 13 15 14 13 14 17 18 17 12 13 12 6 12 16 15 15 16 16 15 15 11 6
7 7 8 8 9 8 7 9 10 10 10 11 11 12 12 12 12 11 10 11 11 11 12 11 13 15 15 14 15 17 17 26 29 29 29 28 29 17 13 13 13 13 13 13 13 12 12 12 12 13 13 12 13 18 16 12 10 11 13 13 12 12 13 14 17 12 13 13 14 16 15 13 14 12 7 10 10 9 8 8 6 9 10 11 14
8 8 8 8 8 8 8 9 10 11 11 12 12 13 13 14 13 11 13 13 13 13 14 13 14 15 16 16 16 17 18 23 29 30 29 31 24 15 14 12 13 14 15 15 14 13 13 13 13 13 13 13 15 19 20 18 11 13 13 13 13 12 13 12 17 20 22 25 28 22 22 20 20 22 18 14 12 9 8 9 13 12 12 13 13
7 8 7 7 8 8 9 9 11 12 12 12 13 13 12 11 12 11 12 14 15 14 13 14 14 13 15 17 16 17 18 23 30 31 32 32 26 18 14 14 15 15 16 16 13 13 14 21 19 15 15 15 17 21 21 17 12 13 13 13 14 13 14 11 8 11 20 24 27 27 22 21 23 22 25 20 17 14 13 16 13 10 13 14 15
7 8 9 9 9 8 9 10 10 11 12 12 12 13 13 13 12 11 12 12 14 13 12 12 12 13 12 15 20 21 18 22 30 31 33 31 25 16 15 14 15 15 15 16 15 14 14 14 20 19 17 17 23 23 23 18 13 13 13 13 13 14 15 12 9 11 10 10 12 13 15 17 16 14 14 23 22 20 17 17 11 13 15 15 13
8 9 9 9 8 8 8 10 10 10 11 13 12 12 11 12 12 12 12 10 11 11 12 12 15 15 13 14 15 15 18 18 23 33 32 33 32 21 15 15 16 17 16 15 16 16 15 14 15 22 26 27 26 27 25 24 16 14 12 12 13 16 14 9 9 11 10 11 11 11 13 12 11 11 12 13 15 17 17 15 14 14 16 15 13
9 9 9 9 9 9 8 7 10 10 9 10 11 12 10 11 13 12 12 11 12 12 14 14 14 16 15 14 13 14 15 18 21 32 32 33 33 28 16 15 14 14 14 16 16 17 17 15 14 17 24 25 26 26 27 27 23 16 14 13 14 16 13 5 12 15 11 11 11 11 10 10 10 11 11 11 12 12 13 15 14 14 14 14 13
8 8 9 9 9 9 8 8 8 9 9 9 11 12 11 11 11 11 11 11 13 15 13 12 13 15 13 12 12 13 16 24 19 25 30 32 31 33 21 16 17 14 16 17 17 17 17 17 15 15 22 24 25 26 28 27 27 17 14 17 20 21 15 11 9 8 9 9 9 10 10 10 10 10 11 11 11 12 12 11 13 14 13 13 14
9 8 9 10 9 9 9 9 9 8 9 10 11 13 12 11 12 10 11 13 13 15 13 13 13 13 13 10 10 11 13 14 24 22 28 30 31 30 33 27 30 22 17 17 17 16 15 16 17 25 26 26 26 26 27 29 24 16 20 24 25 24 17 10 10 10 9 10 10 10 11 11 11 11 10 10 10 10 10 9 10 11 11 10 9
8 9 9 9 10 9 9 9 8 8 9 10 10 12 12 11 11 9 10 11 11 13 12 11 13 14 13 12 9 9 10 12 17 26 24 30 29 30 30 31 32 22 20 18 17 17 16 15 15 21 24 26 27 27 27 27 18 20 23 25 25 21 12 10 10 10 10 10 10 11 12 11 10 10 10 9 8 8 8 7 7 8 8 6 5
9 10 10 10 10 9 9 9 9 9 9 9 10 10 11 10 10 9 9 11 12 11 12 11 11 12 14 14 11 9 10 12 11 18 27 28 30 30 31 34 33 33 22 17 17 17 23 33 37 39 34 29 29 29 25 27 30 26 25 25 21 11 10 10 10 9 9 10 12 12 11 11 11 10 8 6 6 6 5 3 2 2 2 3 3
11 11 11 10 10 10 12 11 9 9 10 8 9 9 10 10 9 10 8 10 10 11 12 10 11 11 12 10 13 12 12 10 12 11 16 20 21 27 30 30 30 30 29 24 32 37 34 30 32 32 33 31 22 17 15 14 19 25 25 22 12 10 10 10 10 10 10 11 11 12 11 9 8 8 7 6 7 8 8 7 6 5 6 6 5
11 11 11 11 11 10 11 10 10 9 8 8 8 8 9 8 10 11 11 11 9 11 11 12 12 12 12 11 11 13 13 11 12 11 10 11 11 13 15 15 22 24 17 16 18 17 21 22 19 25 25 30 30 26 23 22 17 14 12 12 11 11 10 11 11 11 11 10 10 10 9 7 6 6 7 8 8 7 7 8 8 7 7 6 7
10 11 12 11 10 9 10 12 12 10 9 9 9 9 8 8 10 10 10 10 11 11 11 12 13 13 13 13 12 12 11 10 9 10 10 10 11 11 11 12 11 11 12 12 13 16 18 20 23 16 16 16 16 15 16 13 12 11 11 10 10 11 12 12 11 9 9 9 9 7 6 6 7 8 7 8 8 8 7 8 9 8 8 8 7
10 11 11 10 10 9 9 10 10 10 10 9 8 9 10 10 10 11 11 9 10 12 12 12 12 12 11 12 13 10 9 9 8 15 19 24 21 16 12 11 11 11 16 24 20 15 13 12 10 11 10 11 12 13 11 9 9 10 11 10 9 9 9 9 10 10 10 9 9 9 9 7 8 7 8 8 9 8 8 8 8 9 8 9 11
9 10 9 9 10 10 9 10 9 10 10 10 10 10 13 22 17 14 13 21 28 29 25 17 16 14 13 10 10 15 13 13 26 33 30 29 30 30 28 29 27 23 25 31 23 16 12 12 12 12 11 13 14 14 13 10 9 9 9 10 10 9 9 10 10 11 9 9 9 9 9 9 8 8 9 9 7 7 9 10 9 8 10 10 10
9 9 9 9 10 11 10 10 9 10 10 10 10 11 11 13 23 27 25 26 27 28 28 30 31 29 21 17 16 28 31 32 31 30 30 29 30 29 29 28 29 29 28 20 15 13 11 11 12 12 13 12 11 12 10 10 9 8 8 8 9 10 11 10 10 10 10 9 9 9 9 9 10 9 9 9 9 8 7 7 7 9 10 11 10
10 10 10 10 11 10 10 10 11 10 10 9 10 10 10 12 15 23 26 25 27 28 28 29 29 28 29 26 22 16 22 28 31 30 30 30 29 29 29 29 28 29 27 27 17 13 10 11 11 11 11 12 11 12 13 12 12 11 10 9 9 9 10 10 10 9 9 9 9 8 9 9 9 9 9 9 8 9 9 9 8 9 8 8 9
11 11 10 10 10 12 11 10 10 10 10 10 10 10 10 11 13 16 20 25 26 25 26 27 27 27 28 29 30 27 27 28 31 30 29 29 29 27 28 29 28 28 28 17 12 12 10 10 11 10 11 12 11 11 12 11 11 9 7 8 8 8 9 10 9 8 9 10 9 8 9 9 8 8 8 8 9 9 9 9 8 8 8 8 7
10 10 10 11 11 11 10 10 10 10 9 10 10 10 10 10 11 12 14 16 20 21 20 20 22 25 27 28 28 29 29 29 29 29 28 28 28 27 26 22 27 28 22 13 10 10 10 10 11 10 9 11 10 12 12 10 11 10 10 10 10 9 9 8 9 10 9 9 9 8 8 8 8 8 8 7 8 8 9 9 9 9 8 8 9
10 10 14 12 9 10 10 10 10 10 10 10 10 10 11 11 11 11 11 12 13 15 16 19 23 25 22 22 25 29 29 29 29 28 29 27 27 28 27 14 11 10 10 9 10 10 11 12 11 11 10 11 10 9 11 11 10 12 13 13 12 10 9 9 9 10 9 8 8 7 8 8 9 9 9 10 9 9 9 9 9 10 10 9 8
10 9 10 11 10 9 9 9 9 10 10 10 10 10 11 11 11 11 11 11 12 13 14 13 13 19 30 28 29 27 28 29 28 28 27 27 27 26 13 9 11 10 10 10 10 12 11 11 11 11 10 10 8 10 10 12 12 13 13 13 13 11 10 9 9 8 8 8 8 8 8 8 9 9 8 9 12 12 10 11 10 9 9 9 9
9 9 9 9 9 9 9 10 9 10 12 11 11 10 10 11 11 11 11 11 11 12 12 13 12 14 17 13 14 23 29 28 28 27 27 25 27 17 10 11 10 11 11 11 11 11 11 11 10 11 10 11 10 10 10 11 11 12 13 14 12 11 10 9 8 7 8 7 7 8 9 9 9 9 10 10 8 8 7 8 8 8 8 9 9
9 9 9 10 10 11 10 9 10 13 10 9 9 9 10 10 10 11 11 11 12 12 13 12 11 12 12 13 13 11 16 24 28 23 19 17 12 8 8 9 10 10 11 11 11 10 11 11 11 11 11 10 11 10 11 11 12 11 12 15 13 10 11 10 10 10 9 8 9 9 9 9 9 9 9 9 9 9 8 8 8 8 8 9 8
8 13 18 20 15 11 9 9 10 9 9 9 9 10 11 11 11 10 11 11 11 11 12 12 11 11 12 11 11 12 14 13 10 11 11 11 11 9 8 10 10 11 11 11 11 12 11 12 12 11 11 11 11 11 11 11 10 11 11 11 10 8 10 8 9 8 8 8 8 8 8 8 8 8 9 9 9 9 9 9 9 9 10 9 8
10 9 10 17 11 11 10 10 10 9 10 10 10 10 10 10 10 11 11 12 12 12 11 12 12 11 11 11 11 11 12 11 10 9 9 10 10 11 10 10 10 11 12 12 12 11 11 10 11 11 10 11 10 11 11 10 10 9 8 9 9 9 9 8 7 8 8 7 8 8 8 8 8 8 8 8 8 9 10 10 9 9 9 8 8
9 9 9 11 13 11 9 9 8 9 9 10 10 10 10 11 11 11 11 12 12 12 12 11 11 11 11 16 27 24 14 11 11 10 10 10 10 9 10 9 10 11 12 12 13 13 12 12 11 11 10 10 10 9 9 9 9 7 6 5 7 8 8 8 8 8 8 8 8 8 8 8 8 9 9 7 8 8 7 8 7 7 7 7 8
9 9 9 9 10 8 8 9 9 10 9 10 10 9 10 10 10 10 11 11 11 12 12 12 11 11 16 29 25 27 16 11 11 12 11 11 10 11 11 11 10 10 11 12 12 13 13 13 13 12 11 11 10 10 8 8 8 8 8 7 7 7 7 8 7 7 8 8 8 8 8 8 9 8 8 8 8 8 8 8 8 8 8 8 8
9 8 9 9 8 8 9 9 9 9 9 9 9 10 11 11 10 10 10 10 11 11 12 12 12 12 13 20 21 22 11 10 10 11 10 11 10 11 10 11 11 11 11 11 11 11 11 12 12 11 11 11 11 9 8 7 8 8 8 9 9 9 8 7 7 7 6 7 7 7 8 8 8 7 7 8 8 8 8 8 8 8 8 8 8
8 8 9 8 8 8 8 8 8 8 8 11 12 11 11 9 9 9 9 10 10 10 10 11 10 11 11 13 14 11 9 10 9 9 11 11 10 10 11 11 11 11 11 11 10 11 10 9 10 10 9 6 6 3 2 1 3 6 8 8 7 7 7 7 8 8 8 8 8 8 7 7 7 8 8 8 8 9 8 8 8 8 8 8 8
7 7 8 8 8 8 8 7 7 8 10 9 7 8 9 8 9 9 9 9 10 9 9 9 10 10 11 11 11 10 10 9 10 10 10 10 10 10 10 10 10 11 10 9 10 11 11 10 10 9 10 9 9 9 8 7 7 7 6 5 5 6 5 6 6 6 7 8 8 8 8 8 8 7 8 8 8 8 8 8 9 9 9 8 8
7 7 8 7 8 8 8 7 9 8 8 8 8 8 8 8 8 9 9 9 9 9 9 9 9 9 10 10 10 10 10 9 9 9 9 9 9 9 9 9 10 10 9 9 10 10 10 10 9 9 9 10 10 10 9 9 9 9 9 8 7 7 6 6 6 7 7 7 8 7 8 7 7 7 8 8 7 7 8 8 8 8 8 8 8
7 6 7 7 7 8 8 9 7 8 8 8 8 8 8 8 8 9 9 10 10 9 9 9 9 9 9 9 10 10 10 10 9 9 10 10 10 9 9 9 9 9 9 9 10 10 10 8 8 9 9 9 10 10 9 9 9 9 8 8 8 8 7 7 7 7 7 6 7 7 7 8 8 8 8 8 7 8 8 8 8 9 9 8 8
6 7 6 7 6 6 7 7 8 9 8 8 8 9 9 9 9 9 8 8 9 9 8 8 8 9 9 9 9 9 9 9 9 9 9 9 9 9 10 10 10 9 9 9 10 10 10 10 11 12 11 11 11 11 10 9 8 8 7 7 7 8 10 10 8 8 7 7 7 7 8 8 8 8 8 8 8 8 9 8 8 8 9 8 7
6 6 6 6 6 6 6 7 8 7 8 8 8 9 9 8 8 8 8 8 8 8 8 8 8 8 8 9 9 9 9 9 9 9 9 9 10 10 10 10 11 10 10 10 10 11 11 11 12 11 10 10 10 10 10 10 10 9 9 8 12 17 15 14 9 9 10 8 8 8 8 8 9 9 9 9 9 8 8 8 8 9 8 8 7
5 6 6 6 6 6 6 6 5 6 7 7 7 8 8 8 8 8 8 8 8 8 8 8 8 8 8 9 10 9 9 9 10 10 9 9 10 10 10 11 11 11 11 11 11 11 10 10 11 11 11 10 10 10 10 10 9 9 9 11 17 18 17 17 16 14 10 8 8 8 9 9 9 9 8 8 8 9 9 8 8 8 8 7 7
6 5 5 5 5 5 5 6 6 6 6 7 7 7 8 8 8 8 8 8 8 9 8 8 8 8 8 8 8 8 9 9 9 9 9 10 10 10 10 11 11 11 11 11 11 11 11 11 9 9 10 10 10 9 9 9 9 11 14 18 19 17 16 14 12 15 15 11 8 9 9 9 10 10 8 8 8 8 8 8 8 7 6 6 6
Wind_Direction
344 326 318 320 9 351 351 351 354 349 356 354 4 352 353 353 347 336 336 342 339 342 345 345 341 339 337 337 337 333 332 327 326 323 313 302 290 277 278 276 270 270 268 272 268 261 259 261 262 259 254 253 255 253 249 247 243 241 237 236 240 234 229 236 244 255 240 218 205 205 197 172 201 202 200 201 198 203 204 207 199 196 200 203 206
285 300 304 293 327 298 321 328 337 348 3 341 351 324 326 324 319 327 333 316 338 332 337 334 333 333 333 329 331 329 328 327 324 327 320 316 308 304 297 286 279 274 268 267 266 262 260 262 264 263 255 254 257 255 250 250 243 245 243 233 237 239 220 231 244 249 252 186 230 233 175 194 206 196 196 194 202 198 203 204 201 200 200 202 203
243 262 275 286 286 270 262 244 222 208 193 263 274 276 276 282 300 327 314 322 324 327 321 324 324 326 325 320 322 323 321 321 319 322 319 315 309 302 290 283 278 279 276 269 266 264 267 264 264 262 260 262 259 256 253 251 247 247 251 238 239 241 226 222 237 248 251 240 194 200 199 196 203 198 200 206 202 195 199 201 200 203 205 201 203
254 265 269 279 274 271 272 262 275 251 262 248 285 288 287 299 291 311 292 288 311 304 308 304 313 317 319 318 319 316 313 312 314 312 309 309 310 306 304 296 286 276 273 275 274 269 264 270 268 261 258 261 262 259 254 250 249 250 252 250 245 245 231 216 225 244 253 255 212 204 202 188 220 214 201 201 191 194 202 206 207 210 208 203 204
240 256 233 248 260 240 259 252 246 257 253 251 257 266 279 288 300 308 307 309 300 306 301 300 301 307 308 305 307 310 307 306 308 307 303 299 292 293 294 296 293 287 279 276 274 270 270 265 269 266 259 263 265 261 255 253 251 251 252 252 250 250 242 220 231 232 245 245 240 222 205 222 226 202 186 183 187 194 201 203 203 205 206 204 200
245 269 284 297 295 293 283 262 258 250 247 245 252 257 265 279 286 297 303 307 312 311 307 306 301 297 294 290 288 287 290 295 296 292 292 294 293 285 282 281 283 284 285 282 276 269 267 268 267 264 261 260 265 263 257 255 254 253 254 254 251 250 248 242 235 239 239 245 233 218 206 203 213 199 192 187 182 189 201 210 203 204 194 193 204
307 322 322 329 323 320 322 318 316 317 314 299 274 268 267 266 267 274 276 278 287 296 297 298 296 294 292 292 290 286 286 283 286 289 291 289 285 286 286 282 277 278 276 274 272 269 265 266 267 261 258 257 261 262 260 259 255 255 252 254 251 249 248 247 241 241 243 247 242 212 206 212 201 206 203 195 198 194 191 186 205 201 193 200 206
303 308 315 317 314 309 309 306 312 310 310 313 314 312 311 304 290 278 277 280 279 278 281 283 282 282 280 280 281 283 283 287 284 280 277 277 282 283 279 277 277 275 274 272 271 269 266 264 262 260 255 256 256 258 257 260 260 260 255 251 250 248 249 248 244 242 243 244 244 234 207 198 214 234 111 175 200 224 216 193 196 190 201 206 206
276 279 290 290 285 289 296 302 305 311 314 319 318 316 313 309 306 302 285 276 271 265 266 270 279 280 271 269 275 272 269 269 271 276 282 283 279 279 278 274 271 273 273 271 267 265 266 263 262 260 257 258 257 256 256 254 258 263 259 250 248 248 249 248 244 241 242 243 247 240 205 206 208 193 184 192 201 206 186 174 210 209 201 204 221
263 270 270 267 273 281 288 292 291 298 306 305 305 306 306 307 309 310 309 304 299 293 290 283 274 278 287 285 275 271 270 266 262 259 257 263 272 272 274 274 272 269 269 272 269 263 260 261 260 261 263 263 263 261 259 257 255 254 260 257 250 250 246 248 245 241 242 242 241 239 228 223 212 205 203 207 202 180 176 195 206 188 171 214 230
285 276 272 272 277 284 290 283 288 291 284 289 289 290 292 295 299 300 300 301 302 304 301 299 299 297 294 293 294 288 279 275 265 264 267 267 266 266 264 265 266 265 265 262 266 264 262 259 260 262 263 264 262 261 257 256 254 255 256 256 255 249 247 246 246 242 243 243 243 238 237 237 226 206 211 201 193 194 197 192 195 181 190 194 214
321 316 313 317 315 312 304 300 298 290 291 286 283 283 285 287 288 289 291 294 294 293 293 292 295 297 297 296 293 289 288 279 278 277 275 274 271 267 264 261 258 258 258 261 260 260 259 260 257 255 253 250 254 256 257 256 254 252 251 252 254 256 252 246 245 244 239 246 246 240 238 239 236 202 207 196 199 201 200 190 196 195 197 205 212
339 331 322 322 318 314 309 304 300 297 296 295 294 295 292 291 291 290 287 286 288 286 285 292 292 294 294 293 293 292 290 284 285 284 282 279 277 274 268 265 263 260 257 256 258 261 259 257 259 253 250 251 251 250 251 254 254 252 249 250 251 250 253 256 253 247 242 243 245 245 236 241 243 223 201 200 181 197 194 202 204 208 208 211 215
335 325 320 317 315 313 310 310 306 305 306 307 305 301 301 296 294 292 292 291 284 284 286 288 290 291 291 291 291 290 287 285 287 288 286 284 282 280 270 268 266 262 260 256 255 257 256 257 259 259 252 248 245 246 245 247 251 251 251 249 248 249 249 250 253 255 249 244 244 248 245 239 246 241 199 182 187 200 200 208 198 206 209 218 216
331 328 323 321 325 322 322 320 319 319 321 320 317 311 308 308 306 308 304 294 295 294 295 296 293 291 290 289 288 286 283 283 285 286 287 287 287 287 281 276 272 269 263 258 255 254 256 256 253 255 257 249 243 239 243 244 244 246 247 248 245 246 244 243 242 242 244 246 247 249 252 245 250 248 201 199 199 202 199 200 197 202 214 225 230
320 318 316 320 320 323 330 328 325 325 325 325 323 320 319 317 316 318 314 305 300 298 294 293 292 291 289 288 287 284 283 283 284 284 285 286 287 286 281 277 276 273 269 264 259 256 255 254 255 256 253 251 244 243 241 242 241 244 246 246 248 247 246 242 241 233 239 245 250 252 252 246 245 249 216 205 206 207 200 209 201 204 206 211 222
316 317 314 317 324 334 337 332 328 327 327 323 319 316 315 315 313 315 308 303 300 297 294 293 291 289 289 286 283 282 282 282 283 284 285 286 286 283 281 278 275 273 271 268 262 258 256 253 253 255 256 255 246 244 245 244 241 242 244 246 247 247 250 249 245 242 242 244 249 255 259 253 245 245 237 198 203 186 186 194 210 196 199 213 225
314 314 316 330 334 336 335 333 328 326 324 318 315 312 313 310 306 311 306 304 300 297 297 294 290 286 286 285 284 284 283 283 285 286 287 286 286 284 283 282 278 275 274 270 266 262 256 253 250 251 253 254 252 248 245 243 242 241 242 245 248 248 251 246 238 241 241 243 246 249 254 259 256 245 242 226 195 183 187 208 207 186 206 211 218
321 329 331 332 331 335 337 336 329 323 317 314 317 314 312 308 305 308 301 299 295 297 295 292 289 285 279 281 286 285 285 287 288 289 288 288 287 284 282 278 277 274 276 277 275 268 264 255 248 245 245 248 250 250 247 242 239 237 239 240 244 247 247 241 228 238 237 238 244 245 250 250 253 252 246 241 223 206 205 213 195 191 208 216 216
333 327 325 329 334 335 333 324 317 316 315 311 309 304 304 304 303 303 299 294 292 290 290 288 289 288 289 288 288 286 288 289 290 290 289 288 286 285 280 278 274 276 274 276 278 275 268 263 250 245 247 248 249 249 247 242 238 237 235 235 238 245 244 234 221 233 236 233 238 236 240 241 241 242 243 239 235 219 215 215 209 202 212 215 208
324 326 327 325 323 318 314 314 311 308 303 301 301 299 299 298 299 297 294 291 287 287 287 288 285 284 285 286 286 287 287 290 289 289 289 288 287 285 280 273 272 273 276 276 274 275 273 267 262 248 246 247 249 250 249 245 241 238 234 232 232 239 243 197 233 229 233 234 233 237 238 238 234 236 235 234 232 230 222 217 215 211 210 213 212
324 323 319 313 309 307 307 304 299 296 298 297 295 292 291 289 289 290 288 289 288 286 286 287 287 286 286 286 285 286 289 291 292 294 294 293 290 287 282 276 274 272 270 265 266 265 264 266 263 255 250 248 249 250 251 249 246 244 237 233 234 237 236 227 229 227 229 233 231 233 233 232 231 230 231 231 230 228 228 223 219 220 217 217 215
316 312 307 304 305 304 302 298 298 298 294 292 290 290 292 291 288 286 286 287 287 287 287 290 288 287 289 287 289 291 295 299 299 298 298 296 295 294 290 287 283 281 276 273 272 271 270 267 264 263 259 252 251 250 251 251 248 243 243 243 243 242 237 230 222 223 226 229 228 231 230 228 227 228 225 228 227 225 230 228 225 224 224 226 231
309 306 305 303 302 299 298 297 294 291 290 290 286 286 289 288 286 285 286 286 288 289 289 291 290 291 294 296 296 297 301 302 306 307 305 303 301 298 296 293 288 282 281 280 281 279 281 278 275 265 255 250 249 248 250 250 243 240 243 246 247 246 242 234 223 217 218 223 226 229 230 226 227 227 224 221 221 217 223 230 228 224 221 215 197
310 307 305 302 299 299 298 296 294 291 287 286 289 290 287 287 288 286 284 285 284 285 288 290 289 291 292 292 296 294 292 291 287 294 297 299 299 299 299 297 294 292 290 287 278 274 272 276 278 277 274 261 246 244 246 246 245 244 243 244 245 241 237 234 232 216 211 216 224 229 231 226 222 227 224 212 207 194 180 162 138 114 101 96 71
308 305 303 301 302 303 301 298 291 286 286 283 282 285 288 292 287 288 283 281 284 286 288 286 281 284 283 285 287 286 283 278 279 277 280 284 287 291 291 293 294 292 288 285 287 287 288 293 288 283 273 267 254 244 242 240 238 240 243 244 241 235 228 229 228 225 219 218 223 227 230 224 216 217 207 192 192 197 184 167 150 148 148 141 112
300 302 304 304 303 302 299 299 300 297 293 292 286 287 288 283 285 289 287 286 283 282 282 283 282 280 278 279 277 281 277 272 272 268 267 272 269 273 280 281 284 288 291 291 293 290 287 287 288 294 299 299 287 258 239 238 237 235 236 236 234 231 229 224 223 224 223 223 225 228 230 217 208 195 194 192 199 192 177 174 173 172 160 163 151
300 302 301 301 299 300 298 297 298 300 297 295 297 294 283 280 283 282 285 285 285 282 278 279 280 278 279 278 275 273 272 265 262 273 276 272 269 269 265 263 265 265 275 278 280 284 285 288 290 291 294 295 290 281 245 229 227 228 228 229 229 228 232 234 233 231 228 226 226 226 218 203 204 203 194 194 197 186 173 175 175 172 169 156 155
296 296 296 298 296 297 296 298 298 298 299 294 284 283 288 287 280 275 267 262 267 275 275 276 276 276 275 281 287 282 285 284 276 291 290 294 298 299 296 293 287 278 277 282 282 276 274 277 269 277 271 270 276 272 264 244 229 227 227 225 224 225 224 223 229 227 225 220 219 215 213 201 209 198 193 195 194 180 175 179 181 167 176 180 182
297 295 297 298 299 301 301 300 299 298 298 299 299 292 285 294 293 292 291 291 292 291 292 292 293 294 293 287 291 296 297 295 300 302 304 303 301 299 297 295 294 293 291 289 287 284 280 280 280 279 276 275 271 264 253 244 242 236 232 230 229 225 221 220 221 229 225 219 216 210 205 201 201 195 193 196 185 174 179 177 178 173 174 187 189
297 296 300 300 302 302 301 301 301 301 298 299 298 297 300 297 297 297 295 296 296 296 297 297 299 299 299 299 299 299 299 301 303 303 302 301 300 299 298 296 295 294 294 292 285 279 280 277 280 277 277 274 273 274 265 251 231 228 227 230 232 231 227 221 219 219 221 218 213 208 200 196 198 191 192 191 180 170 172 180 175 178 187 187 187
299 301 303 302 303 301 301 302 304 301 299 296 296 297 298 301 301 301 301 300 300 299 299 300 301 302 303 303 303 300 301 301 302 302 302 301 300 299 298 297 296 295 293 291 287 282 279 279 273 272 273 272 269 271 270 261 249 235 228 225 227 225 227 226 222 217 218 216 211 204 197 197 196 191 190 183 172 172 172 173 175 186 190 194 188
296 299 300 301 301 303 305 303 299 298 298 300 299 299 298 298 299 305 307 304 301 300 302 302 304 305 305 306 305 303 304 306 306 306 305 305 304 302 300 299 299 298 298 295 288 287 282 280 278 278 276 274 272 267 267 263 251 243 236 238 234 229 228 233 232 223 218 215 207 202 195 194 190 185 183 174 170 174 176 176 177 179 183 181 180
294 295 302 304 305 303 302 298 298 297 295 294 293 294 293 291 291 293 301 309 317 314 307 302 303 307 307 306 306 307 308 311 312 311 309 307 305 303 301 302 304 305 308 308 307 300 295 285 281 277 273 273 272 272 267 263 266 268 260 250 244 238 233 228 225 222 218 212 205 199 190 188 179 173 174 172 178 173 174 176 170 170 181 183 175
299 297 298 299 297 296 295 295 296 296 296 296 295 294 292 290 289 291 292 298 301 303 309 313 314 312 310 310 309 311 314 314 312 311 310 309 308 307 310 312 310 311 305 294 290 284 283 283 279 275 269 269 269 268 267 259 250 250 250 245 239 233 228 223 221 218 210 204 201 195 187 178 176 175 172 168 167 174 177 174 177 180 177 176 175
304 304 306 304 300 293 293 294 294 294 296 295 295 292 293 294 296 293 293 290 288 290 294 296 295 301 306 309 309 311 311 312 312 312 311 310 310 313 314 308 301 294 289 283 279 281 279 278 274 270 267 265 264 267 269 270 259 250 246 237 229 225 223 218 214 207 198 193 194 181 174 179 176 172 171 176 178 178 175 177 177 179 179 177 177
309 308 305 303 299 296 295 293 291 293 297 297 296 295 293 293 290 291 290 289 289 289 289 292 298 299 305 303 299 309 311 313 314 312 311 310 309 310 292 289 283 286 280 279 278 277 277 271 268 268 265 266 261 262 265 267 266 261 251 236 224 217 212 211 201 190 184 188 184 178 179 179 175 173 170 172 176 174 172 169 168 171 174 175 169
306 305 303 304 304 302 299 296 298 301 299 293 292 291 293 293 293 294 294 293 293 295 296 294 294 296 296 298 303 300 306 308 309 308 306 307 304 287 283 281 284 281 283 277 276 269 269 269 266 264 261 254 256 256 256 257 261 258 252 237 216 204 192 187 189 184 186 184 182 181 179 178 173 170 168 169 168 166 167 167 164 165 165 173 167
307 307 309 310 308 306 302 304 304 304 300 299 296 299 300 301 301 300 297 297 297 296 292 294 294 295 295 298 303 300 299 299 296 297 304 306 305 299 292 292 287 284 279 278 278 281 273 274 271 268 263 258 254 251 249 248 247 252 247 219 189 177 191 188 188 185 183 183 178 175 173 173 168 169 168 165 165 164 164 163 166 165 164 166 170
311 308 306 312 309 308 309 306 304 301 302 306 309 308 306 306 306 305 306 307 304 302 300 300 300 299 303 305 298 299 298 300 305 309 309 306 303 302 299 293 293 288 288 285 285 283 280 273 268 265 261 264 260 250 243 241 247 246 230 195 164 169 177 177 177 174 178 175 171 170 168 165 162 161 163 165 162 161 161 164 167 168 165 162 154
308 307 308 312 314 312 305 302 302 305 309 311 309 309 308 309 311 311 311 309 308 307 307 305 305 307 307 314 320 325 325 323 324 318 311 310 307 305 307 310 312 312 311 307 303 297 293 289 282 277 276 274 271 259 241 236 237 224 196 181 159 163 168 176 178 179 176 171 169 165 162 157 156 156 159 157 155 154 154 151 150 151 149 147 146
310 311 314 312 315 310 307 309 308 312 311 311 311 313 315 316 315 314 313 312 314 317 318 320 319 319 324 329 333 337 339 335 328 324 322 319 321 321 319 315 312 308 305 302 303 305 304 300 292 287 280 275 268 260 242 231 220 200 185 169 165 163 170 176 178 173 166 165 161 160 156 156 157 156 153 149 147 146 147 150 150 149 147 148 146
313 314 312 312 314 314 314 311 312 315 319 319 319 322 321 318 317 316 313 314 319 321 324 323 325 329 329 333 336 339 337 328 328 321 318 323 320 320 319 317 313 307 304 304 305 304 303 298 292 285 278 266 256 248 238 208 189 182 174 169 171 171 169 162 159 159 155 151 148 145 143 148 145 140 141 141 142 142 146 144 144 143 145 143 143
318 314 312 313 313 311 310 311 316 320 318 324 326 323 321 318 316 315 318 321 322 325 326 326 325 326 325 331 334 335 332 332 326 327 325 324 322 321 321 317 316 314 317 317 315 314 308 298 304 316 322 338 343 349 3 40 173 175 169 169 164 154 150 147 151 153 151 145 141 139 138 138 137 138 138 140 140 141 141 141 141 140 138 139 134
315 316 317 318 321 320 318 321 322 322 322 323 316 314 318 320 319 320 323 323 327 327 329 327 329 327 329 329 332 332 333 332 332 331 328 326 324 322 320 320 321 321 322 325 332 333 328 332 339 346 353 2 19 32 35 39 43 47 43 74 104 124 136 143 143 137 137 136 135 135 135 135 136 136 136 138 142 140 141 143 141 137 133 134 134
319 317 320 322 322 321 326 328 331 324 323 323 321 321 323 322 322 325 327 329 333 334 333 334 332 331 330 331 331 334 334 335 336 332 330 330 328 328 327 327 326 327 328 333 337 343 338 340 343 346 2 10 18 30 37 38 40 44 50 51 61 65 71 80 90 103 115 123 126 128 127 125 124 130 132 133 132 130 129 127 128 130 129 127 127
318 316 322 320 322 322 327 329 327 330 330 325 326 328 328 328 329 329 330 334 339 338 339 337 339 339 339 338 340 340 341 343 343 344 341 338 336 336 338 337 337 338 339 340 344 348 347 345 348 357 1 6 17 25 36 42 45 47 49 57 63 70 72 77 81 85 92 98 109 116 119 122 120 119 120 119 119 121 122 124 127 125 124 126 127
320 319 317 317 319 325 328 330 330 332 331 330 332 332 329 329 329 331 334 337 344 345 344 343 345 344 342 343 342 342 343 344 344 346 347 347 349 347 349 351 351 348 347 351 357 0 3 8 12 17 18 19 21 25 25 31 36 48 56 62 67 76 80 80 81 82 84 92 96 104 109 111 112 114 116 118 118 120 120 120 119 116 121 121 122
320 321 318 321 322 330 327 330 329 333 332 333 331 332 332 330 331 332 335 338 343 345 348 349 346 345 347 344 344 345 346 347 349 351 352 351 350 352 351 353 355 355 358 4 5 11 13 16 17 20 21 24 28 32 33 35 38 39 51 61 74 77 77 78 80 81 84 84 88 90 93 97 101 104 103 104 106 105 106 109 113 118 118 116 109
319 316 313 316 320 323 323 322 322 326 333 333 334 333 331 331 333 337 338 339 341 345 348 349 348 347 346 348 350 351 352 354 353 352 352 351 353 352 356 357 1 2 5 7 8 9 13 19 23 25 28 29 33 35 40 42 47 54 58 68 73 76 79 81 82 82 81 83 85 91 94 95 94 94 94 97 100 106 107 111 113 117 120 118 113
317 315 311 312 318 321 329 333 338 339 338 336 340 336 334 334 334 335 338 341 342 342 342 343 342 346 351 351 351 352 354 353 354 353 354 356 356 355 357 2 5 6 7 9 10 11 12 12 16 24 33 38 39 41 44 50 55 62 70 72 74 76 76 77 82 83 84 85 87 88 93 95 98 97 96 96 98 101 109 110 111 116 117 118 115